#timestamp,LO_Frequency,Hit,StdDev 
1613865615.0,286046996.5,N
1613865615.9,286046996.5,N
1613865635.8,286046996.6,N
1613865655.6,286046998.3,N
1613865675.5,286047003.8,N
1613865695.3,286047002.2,N
1613865715.1,286047000.2,N
1613865735.9,286047004.1,N
1613865755.7,286047002.1,N
1613865775.5,286047003.0,N
1613865795.4,286047005.7,N
1613865815.2,286047004.7,N
1613865835.1,286047008.8,Y
1613865836.0,286047008.8,P
1613865855.8,286047010.8,N
1613865875.6,286047010.8,N
1613865925.5,286047012.8,E
1613865935.4,286047010.3,N
1613865955.3,286047001.1,P
1613865975.1,286046999.4,N
1613865995.9,286046996.5,N
1613866015.7,286046995.5,N
1613866035.5,286047000.5,N
1613866055.4,286046995.6,N
1613866075.2,286047001.2,N
1613866095.0,286046995.2,N
1613866095.9,286046995.2,N
1613866115.8,286046999.5,N
1613866135.6,286047001.4,N
1613866155.5,286047003.6,N
1613866175.3,286047005.4,N
1613866195.1,286047004.9,N
1613866215.9,286046999.4,N
1613866235.7,286046995.0,N
1613866255.6,286047000.5,N
1613866275.4,286047001.5,N
1613866295.2,286046998.9,N
1613866315.1,286046997.5,N
1613866316.0,286046997.5,N
1613866335.8,286046996.5,N
1613866355.7,286046994.0,N
1613866375.5,286046999.3,N
1613866395.3,286046998.8,N
1613866415.2,286046995.9,N
1613866435.9,286046998.1,N
1613866455.7,286047008.1,N
1613866475.6,286046999.4,N
1613866495.4,286046998.7,N
1613866515.2,286047001.0,N
1613866535.1,286047004.5,N
1613866536.0,286047004.5,N
1613866555.8,286047009.5,N
1613866575.7,286047011.3,N
1613866595.5,286047015.3,Y
1613866615.3,286047010.5,P
1613866635.2,286047012.3,N
1613866655.0,286047010.8,N
1613866655.9,286047010.8,N
1613866675.8,286047013.7,Y
1613866695.6,286047007.5,P
1613866715.4,286047004.7,P
1613866735.3,286047008.8,P
1613866755.1,286047004.1,N
1613866775.8,286046999.9,N
1613866795.7,286046996.8,N
1613866815.5,286046999.7,N
1613866835.4,286046998.3,N
1613866855.2,286046995.8,N
1613866875.0,286046997.4,N
1613866875.9,286046997.4,N
1613866895.8,286046997.9,N
1613866915.6,286047003.6,N
1613866935.4,286047007.1,N
1613866955.3,286047007.6,N
1613866975.1,286047008.1,N
1613866995.9,286047006.8,N
1613867015.7,286047007.6,N
1613867035.5,286047009.1,N
1613867055.4,286047007.3,N
1613867075.2,286047007.4,N
1613867095.0,286047009.6,N
1613867095.9,286047009.6,N
1613867115.8,286047014.0,N
1613867135.6,286047009.0,N
1613867155.5,286047008.1,N
1613867175.3,286047012.9,N
1613867195.1,286047013.8,N
1613867215.9,286047010.4,N
1613867235.7,286047011.6,N
1613867255.5,286047015.1,N
1613867275.4,286047018.2,Y
1613867295.2,286047015.3,P
1613867315.1,286047012.8,N
1613867316.0,286047012.8,P
1613867335.8,286047023.2,Y
1613867355.6,286047011.1,P
1613867375.5,286047011.8,P
1613867395.3,286047010.0,P
1613867415.2,286047005.7,Y
1613867435.9,286046994.0,P
1613867455.7,286046994.0,N
1613867475.6,286046988.8,N
1613867495.4,286046985.7,N
1613867515.2,286046985.6,N
1613867535.1,286046985.6,N
1613867536.0,286046985.6,N
1613867555.8,286046983.2,N
1613867575.7,286046983.6,N
1613867595.5,286046983.3,N
1613867615.3,286046986.3,N
1613867635.2,286046987.8,N
1613867655.9,286046988.9,N
1613867675.7,286046994.7,N
1613867695.6,286046996.4,N
1613867715.4,286046996.2,N
1613867735.2,286046999.6,N
1613867755.1,286046998.8,N
1613867756.0,286046998.8,N
1613867775.8,286047004.1,N
1613867795.7,286047003.3,N
1613867815.5,286047003.6,N
1613867835.3,286047010.6,N
1613867855.2,286047008.9,N
1613867875.0,286047004.6,N
1613867875.9,286047004.6,N
1613867895.7,286047003.4,N
1613867915.6,286047001.4,N
1613867935.4,286047001.7,N
1613867955.3,286047000.0,N
1613867975.1,286046996.7,N
1613867976.0,286046996.7,N
1613867995.8,286047001.7,N
1613868015.7,286047004.1,N
1613868035.5,286047003.0,N
1613868055.3,286047006.4,N
1613868075.2,286047011.2,N
1613868095.0,286047013.7,N
1613868095.9,286047013.7,N
1613868115.8,286047015.4,N
1613868135.6,286047016.5,N
1613868155.4,286047018.7,N
1613868175.3,286047019.9,N
1613868195.1,286047018.0,N
1613868215.9,286047017.1,N
1613868235.7,286047016.0,N
1613868255.5,286047013.7,N
1613868275.4,286047010.9,N
1613868295.2,286047013.4,N
1613868315.0,286047011.2,N
1613868315.9,286047011.2,N
1613868335.8,286047011.4,N
1613868355.6,286047010.9,N
1613868375.5,286047010.3,N
1613868395.3,286047005.5,N
1613868415.1,286047006.0,N
1613868435.9,286047006.8,N
1613868485.7,286047012.0,E
1613868495.6,286047006.6,N
1613868515.5,286047001.0,P
1613868535.3,286047000.0,N
1613868555.2,286047002.7,N
1613868575.9,286047000.7,N
1613868595.7,286047004.0,N
1613868615.6,286047001.3,N
1613868635.4,286047000.8,N
1613868655.2,286046999.4,N
1613868675.1,286047004.2,N
1613868676.0,286047004.2,N
1613868695.8,286047003.8,N
1613868715.7,286047007.4,Y
1613868735.5,286047009.1,P
1613868755.3,286047005.9,N
1613868775.2,286047002.0,N
1613868795.0,286046999.8,N
1613868795.9,286046999.8,N
1613868815.7,286047003.6,N
1613868835.6,286047005.8,N
1613868855.4,286047005.8,N
1613868875.3,286047005.4,N
1613868895.1,286047001.4,N
1613868896.0,286047001.4,N
1613868915.8,286047001.8,N
1613868935.7,286047005.6,N
1613868955.5,286047007.3,N
1613868975.3,286047006.3,N
1613868995.2,286047008.7,Y
1613869015.0,286047005.2,P
1613869015.9,286047005.2,P
1613869035.8,286047009.0,P
1613869055.6,286047014.0,Y
1613869075.4,286047012.3,P
1613869095.3,286047012.1,P
1613869115.1,286047011.3,P
1613869135.9,286047013.2,Y
1613869155.7,286047003.8,P
1613869175.5,286047003.8,N
1613869195.4,286047002.2,N
